DSXGS EDDH-EDDH

Flight info

Callsign DSXGS
Flight time N/A
Altitude 14000
Route EDDV DCT DROPZONE DCT EDDV
Aircraft C280/L-S/L

Departure

Time 2026-05-01 11:07
Airport Hamburg Helmut Schmidt Airport (EDDH)

Arrival

Time N/A
Airport Hamburg Helmut Schmidt Airport (EDDH)
Time Latitude Longitude Altitude Speed Heading
2026-05-01 10:59 53.62476 10.00454 45 ft 0 kts 246°
2026-05-01 11:05 53.62476 10.00451 72 ft 2 kts 246°
2026-05-01 11:05 53.62469 10.00417 45 ft 8 kts 265°
2026-05-01 11:06 53.62564 10.00303 45 ft 11 kts 328°
2026-05-01 11:06 53.62569 10.00200 45 ft 11 kts 248°
2026-05-01 11:06 53.62559 10.00165 46 ft 11 kts 239°
2026-05-01 11:07 53.62993 9.99616 92 ft 107 kts 343°
2026-05-01 11:07 53.63727 9.99378 768 ft 114 kts 353°
2026-05-01 11:07 53.64503 9.98811 1178 ft 122 kts 330°
2026-05-01 11:07 53.65237 9.98133 1530 ft 125 kts 331°
2026-05-01 11:08 53.65989 9.97333 1825 ft 128 kts 324°
2026-05-01 11:08 53.66787 9.96497 2160 ft 136 kts 329°
2026-05-01 11:08 53.68351 9.94676 2841 ft 143 kts 322°
2026-05-01 11:09 53.69136 9.93681 3165 ft 142 kts 321°
2026-05-01 11:09 53.69928 9.92653 3466 ft 143 kts 322°
2026-05-01 11:09 53.70729 9.91619 3752 ft 147 kts 322°
2026-05-01 11:10 53.72416 9.89648 4413 ft 141 kts 332°
2026-05-01 11:10 53.73279 9.88868 4765 ft 144 kts 333°
2026-05-01 11:10 53.74192 9.88039 5031 ft 150 kts 333°
2026-05-01 11:10 53.75104 9.87161 5297 ft 153 kts 332°
2026-05-01 11:11 53.76072 9.86419 5634 ft 151 kts 338°
2026-05-01 11:11 53.77060 9.85728 5832 ft 158 kts 340°
2026-05-01 11:11 53.78112 9.85073 5881 ft 169 kts 344°
2026-05-01 11:11 53.79294 9.84461 5993 ft 177 kts 344°
2026-05-01 11:12 53.80475 9.83832 6193 ft 179 kts 344°
2026-05-01 11:12 53.81640 9.83141 6477 ft 175 kts 342°
2026-05-01 11:12 53.82820 9.82399 6562 ft 184 kts 341°
2026-05-01 11:12 53.84002 9.81652 6764 ft 182 kts 341°
2026-05-01 11:13 53.85187 9.80928 6908 ft 184 kts 343°
2026-05-01 11:13 53.86427 9.80281 7012 ft 184 kts 345°
2026-05-01 11:13 53.87674 9.79877 7145 ft 182 kts
2026-05-01 11:13 53.88863 9.80449 7304 ft 177 kts 32°
2026-05-01 11:14 53.89713 9.81861 7460 ft 170 kts 69°
2026-05-01 11:14 53.89920 9.83779 7620 ft 165 kts 93°
2026-05-01 11:14 53.90166 9.85709 7699 ft 172 kts 75°
2026-05-01 11:14 53.90579 9.87583 7903 ft 168 kts 74°
2026-05-01 11:15 53.90980 9.89442 8109 ft 167 kts 73°
2026-05-01 11:15 53.91381 9.91253 8374 ft 162 kts 77°
2026-05-01 11:15 53.91762 9.93028 8636 ft 161 kts 76°
2026-05-01 11:15 53.92117 9.94838 8834 ft 165 kts 75°
2026-05-01 11:16 53.92516 9.96643 8923 ft 174 kts 74°
2026-05-01 11:16 53.92951 9.98571 8979 ft 178 kts 75°
2026-05-01 11:16 53.93332 10.00544 9178 ft 174 kts 77°
2026-05-01 11:16 53.93744 10.02502 9267 ft 177 kts 74°
2026-05-01 11:17 53.94205 10.04452 9424 ft 176 kts 73°
2026-05-01 11:17 53.94668 10.06404 9490 ft 180 kts 73°
2026-05-01 11:17 53.95119 10.08377 9597 ft 178 kts 75°
2026-05-01 11:17 53.95578 10.10329 9788 ft 173 kts 72°
2026-05-01 11:18 53.96030 10.11849 10828 ft 130 kts 67°
2026-05-01 11:18 53.96539 10.13378 10709 ft 168 kts 68°
2026-05-01 11:18 53.97140 10.15154 10771 ft 177 kts 64°
2026-05-01 11:18 53.97650 10.17054 10864 ft 175 kts 78°
2026-05-01 11:19 53.97725 10.19001 11074 ft 167 kts 105°
2026-05-01 11:19 53.97225 10.20780 11165 ft 164 kts 138°
2026-05-01 11:19 53.96620 10.22344 11381 ft 165 kts 108°
2026-05-01 11:19 53.96721 10.24302 11610 ft 167 kts 67°
2026-05-01 11:20 53.97443 10.25727 12029 ft 166 kts 58°
2026-05-01 11:20 53.98117 10.27277 12392 ft 162 kts 65°
2026-05-01 11:20 53.98595 10.28916 12765 ft 159 kts 73°
2026-05-01 11:20 53.98996 10.30637 13077 ft 160 kts 75°
2026-05-01 11:21 53.99507 10.32333 13457 ft 160 kts 63°
2026-05-01 11:21 53.99957 10.34049 13745 ft 159 kts 79°
2026-05-01 11:21 54.00286 10.35889 13978 ft 167 kts 79°
2026-05-01 11:21 54.00645 10.37868 13983 ft 181 kts 78°
2026-05-01 11:22 54.01025 10.39924 13984 ft 183 kts 78°
2026-05-01 11:22 54.01418 10.41995 13983 ft 184 kts 77°
2026-05-01 11:22 54.01820 10.44050 13983 ft 184 kts 77°
2026-05-01 11:22 54.02231 10.46084 13984 ft 184 kts 76°
2026-05-01 11:23 54.02659 10.48156 13983 ft 188 kts 76°
2026-05-01 11:23 54.03104 10.50253 13985 ft 189 kts 76°
2026-05-01 11:23 54.03563 10.52359 13986 ft 190 kts 75°
2026-05-01 11:23 54.04035 10.54472 13983 ft 191 kts 74°
2026-05-01 11:24 54.04518 10.56580 13988 ft 192 kts 73°
2026-05-01 11:24 54.05017 10.58696 13991 ft 193 kts 73°
2026-05-01 11:24 54.06018 10.62786 13982 ft 190 kts 71°
2026-05-01 11:25 54.06542 10.64845 13981 ft 190 kts 71°
2026-05-01 11:25 54.07594 10.68826 13980 ft 163 kts 71°
2026-05-01 11:25 54.08032 10.70375 13980 ft 132 kts 70°
2026-05-01 11:26 54.08428 10.71694 13987 ft 128 kts 69°
2026-05-01 11:26 54.09314 10.74552 13993 ft 142 kts 68°
2026-05-01 11:26 54.09792 10.76056 13994 ft 146 kts 68°
2026-05-01 11:27 54.10290 10.77591 13989 ft 150 kts 67°
2026-05-01 11:27 54.10794 10.79114 13984 ft 144 kts 66°
2026-05-01 11:27 54.11281 10.80543 13977 ft 136 kts 66°